SCP
0 0 0 0 0 0 0 0 0 0 0 0 0 0 0 0 0 0 0 0 0 0 0 0 0 0 0 0 0 0 0 0 0 0 -0 0 -0 -0
0 0 0 0 0 0 0 0 0 0 0 0 0 0 0 0 0 0 0 0 0 0 0 0 0 0 0 0 0 0 0 0 0 0 0 0 0 -0
0 0 0 0 0 0 0 0 0 0 0 0 0 0 0 0 0 0 0 0 0 0 0 0 0 0 0 0 0 0 0 0 0 0 0 0 -0 -0
0 0 0 0 0 0 0 0 0 0 0 0 0 0 0 0 0 0 0 0 0 0 0 0 0 0 0 0 0 0 0 0 0 -0 0 -0 -0 -0
0 0 0 0 0 0 0 0 0 0 0 0 0 0 0 0 0 0 0 0 0 0 0 0 0 0 0 0 0 0 0 0 0 -0 -0 -0 -0 -0
0 0 0 0 0 0 0 0 0 0 0 0 0 0 0 0 0 0 0 0 0 0 0 0 0 0 0 0 0 0 0 0 0 0 -0 -0 -0 -0
0 0 0 0 0 0 0 0 0 0 0 0 0 0 0 0 0 0 0 0 0 0 0 0 0 0 0 0 0 0 0 0 0 -0 -0 -0 -0 -0
0 0 0 0 0 0 0 0 0 0 0 0 0 0 0 0 0 0 0 0 0 0 0 0 0 -0 0 0 0 0 0 0 -0 -0 -0 -0 -0 -0
0 0 0 0 0 0 0 0 0 0 0 0 0 0 0 0 0 0 0 0 0 0 0 0 0 -0 -0 0 0 -0 0 0 -0 -0 -0 -0 -0 -0
0 0 0 0 0 0 0 0 0 0 0 0 0 0 0 0 0 0 0 0 0 0 0 0 0 0 0 0 -0 -0 0 -0 -0 -0 -0 -0 -0 -0
0 0 0 0 0 0 0 0 0 0 0 0 0 0 0 0 0 0 0 0 0 0 0 0 0 0 0 0 0 -0 0 0 -0 -0 -0 -0 -0 -0
0 0 0 0 0 0 0 0 0 0 0 0 0 0 0 0 0 0 0 0 0 0 0 0 0 0 0 0 0 0 -0 0 -0 -0 -0 -0 -0 -0
0 0 0 0 0 0 0 0 0 0 0 0 0 0 0 0 0 0 0 0 0 0 0 0 0 0 0 0 0 0 0 -0 -0 -0 -0 -0 -0 -0
0 0 0 0 0 0 0 0 0 0 0 0 0 0 0 0 0 0 0 0 0 0 0 0 0 0 0 0 0 0 0 -0 -0 -0 -0 -0 -0 -0
0 0 0 0 0 0 0 0 0 0 0 0 0 0 0 0 0 0 0 0 0 0 0 0 0 0 0 0 0 0 0 0 -0 -0 0 -0 -0 -0
0 0 0 0 0 0 0 0 0 0 0 0 0 0 0 0 0 0 0 0 0 0 0 0 0 0 0 0 0 0 0 0 -0 -0 -0 0 -0 -0
0 0 0 0 0 0 0 0 0 0 0 0 0 0 0 0 0 0 0 0 0 0 0 0 0 0 0 0 0 0 0 0 -0 -0 -0 0 -0 -0
0 0 0 0 0 0 0 0 0 0 0 0 0 0 0 0 0 0 0 0 0 0 0 0 0 0 0 0 0 0 0 0 0 0 -0 0 0 0
0 0 0 0 0 0 0 0 0 0 0 0 0 0 0 0 0 0 0 0 0 0 0 0 0 0 0 0 0 0 0 0 0 -0 0 -0 -0 -0
0 0 0 0 0 0 0 0 0 0 0 0 0 0 0 0 0 0 0 0 0 0 0 0 0 0 0 -0 0 0 -0 -0 0 0 0 -0 0 -0
0 0 0 0 0 0 0 0 0 0 0 0 0 0 0 0 0 0 0 0 0 0 0 0 0 0 0 0 0 0 0 0 -0 0 0 0 0 -0
0 0 0 0 0 0 0 0 0 0 0 0 0 0 0 0 0 0 0 0 0 0 0 0 0 0 0 0 0 0 0 0 0 0 -0 -0 -0 -0
0 0 0 0 0 0 0 0 0 0 0 0 0 0 0 0 0 0 0 0 0 0 0 0 0 0 0 0 0 0 0 0 0 0 0 0 -0 -0
Wind_Speed_500mb
12 7 4 9 15 20 24 24 23 16 19 26 31 32 33 41 49 52 45 46 54 51 51 52 56 60 62 70 78 77 80 78 72 71 74 66 42 30
12 4 5 13 18 22 22 22 20 17 15 23 28 33 37 38 48 53 51 41 53 49 51 53 56 58 67 72 78 78 80 77 79 83 63 49 40 25
10 3 8 15 20 21 19 19 17 16 17 20 26 31 35 41 44 52 49 42 53 51 48 52 58 60 69 76 79 80 83 77 79 79 63 57 49 39
6 4 12 16 19 18 17 18 17 15 17 22 28 33 36 42 44 54 54 43 50 57 44 48 54 60 68 80 83 81 77 78 78 77 77 69 56 45
4 7 13 17 20 19 16 15 16 13 16 22 28 31 34 46 53 59 49 50 48 55 54 50 55 58 67 79 86 79 74 74 75 70 71 71 67 58
4 8 14 18 19 17 14 14 10 13 14 22 29 34 37 43 48 66 61 54 47 53 50 46 52 57 65 75 84 79 77 75 75 61 63 66 65 60
4 11 16 19 21 19 14 12 11 12 15 23 34 41 47 51 55 52 53 53 52 61 52 51 50 61 64 71 76 80 75 74 73 64 57 57 60 62
7 13 19 22 23 21 15 14 13 14 19 29 39 42 42 45 51 54 53 52 55 57 49 59 45 54 67 64 70 75 75 72 69 69 69 42 52 54
6 14 18 20 19 16 17 18 19 17 24 31 36 36 36 41 48 49 47 44 43 55 57 56 55 45 56 60 65 72 75 72 69 61 63 63 47 45
9 14 17 19 16 10 8 11 15 20 25 29 31 31 35 41 47 39 39 44 42 52 59 60 64 42 53 58 66 68 70 71 69 62 57 58 51 41
10 15 16 19 17 13 8 7 10 16 23 27 24 23 29 40 42 37 40 46 50 49 61 60 64 51 48 57 60 67 72 73 69 67 58 54 51 40
8 11 15 16 19 14 13 14 15 20 21 19 18 25 34 39 37 37 36 39 43 34 52 58 61 65 40 54 52 60 70 73 74 69 63 54 51 45
3 7 7 12 18 17 18 19 26 24 23 24 24 26 34 38 35 31 34 41 40 39 40 45 55 64 57 48 64 51 63 69 74 68 61 61 59 53
1 3 3 10 15 17 19 23 23 20 19 22 27 36 39 43 36 29 31 36 35 40 39 36 44 53 60 59 62 55 57 61 65 69 68 63 64 63
5 5 5 9 14 14 17 19 19 20 21 24 32 37 40 39 30 24 24 23 27 36 33 38 39 40 50 62 63 61 53 56 57 58 63 69 72 71
11 6 3 6 11 14 14 19 21 22 24 27 30 32 31 33 34 32 32 30 31 35 32 36 37 42 42 52 58 65 63 54 50 50 50 53 58 61
10 6 2 3 5 11 15 18 20 19 21 25 27 30 32 34 35 31 31 33 36 36 35 36 37 37 42 45 53 56 60 65 60 52 47 48 52 55
6 5 5 4 6 12 14 17 18 19 22 23 26 30 34 36 34 31 32 33 35 35 38 38 36 31 35 47 51 49 53 55 55 55 57 59 60 54
4 9 10 10 10 13 13 14 15 18 22 22 25 28 29 31 34 34 33 32 34 36 38 37 36 33 36 42 50 50 51 52 50 49 43 47 50 55
11 12 13 12 11 12 11 12 14 17 17 21 24 26 29 32 33 32 31 30 32 36 37 38 34 32 38 42 48 50 52 54 55 50 46 36 37 42
15 17 15 11 11 11 11 12 12 13 16 19 20 22 24 27 30 29 27 28 31 36 39 38 35 27 28 29 35 42 46 48 49 48 46 47 42 54
17 13 12 12 13 12 11 12 11 13 16 18 19 20 22 25 28 27 26 27 31 33 32 26 19 18 24 36 38 40 44 41 37 34 42 48 48 40
12 11 10 13 14 11 10 11 10 12 14 15 16 17 19 23 26 25 24 26 27 30 28 25 23 26 30 34 36 38 41 44 42 38 40 35 30 28
Wind_Direction_500mb
140 141 56 1 356 352 342 338 346 338 326 348 356 4 4 5 3 360 353 356 357 359 358 353 351 353 356 358 359 360 357 353 354 357 354 342 328 313
148 137 28 351 349 348 339 338 343 346 326 345 359 4 8 8 8 3 4 360 2 4 1 355 356 0 3 5 4 3 360 0 4 5 355 11 3 349
139 40 7 348 349 348 347 339 345 342 332 359 4 8 7 5 4 5 5 4 8 9 360 359 1 4 7 11 8 7 6 7 11 14 17 28 19 31
119 24 355 351 354 350 351 335 343 332 348 360 1 5 3 2 2 7 4 8 11 12 11 6 8 11 10 11 11 9 12 13 18 21 25 30 36 43
103 8 357 2 2 349 348 342 352 342 354 356 357 358 1 3 0 2 7 11 14 13 9 9 10 15 17 14 15 12 14 17 19 27 29 30 37 48
78 6 3 8 4 351 338 353 353 351 11 1 3 4 6 6 3 3 9 12 12 16 16 17 14 19 18 17 16 17 17 22 23 29 34 33 38 47
29 10 7 2 6 358 351 4 5 26 9 9 9 11 11 11 7 8 8 11 18 13 20 26 21 26 23 19 14 21 19 22 25 32 32 38 44 49
20 13 7 3 6 4 19 30 23 20 14 8 8 13 12 6 2 5 7 9 12 11 14 24 23 20 19 20 14 18 24 23 25 29 22 41 49 54
32 20 13 9 7 3 18 11 17 20 11 7 12 11 9 1 352 358 9 12 10 13 18 20 24 25 22 25 22 17 20 26 26 29 30 35 47 50
39 24 19 19 15 30 20 343 357 1 7 17 13 8 2 352 351 357 358 6 21 24 15 15 15 30 30 28 27 24 24 24 29 29 32 34 42 45
34 27 24 27 32 48 41 16 5 17 19 17 9 1 355 353 354 6 11 10 18 19 22 20 15 17 29 27 27 25 24 30 27 33 34 36 39 41
37 23 23 34 35 34 48 46 49 40 33 21 13 2 3 1 4 14 18 17 18 23 17 19 18 17 14 25 25 24 24 26 33 30 33 41 40 45
67 31 27 35 31 28 43 44 45 30 18 4 4 10 13 14 14 16 17 14 17 23 15 18 22 25 28 15 26 31 28 26 32 36 40 37 41 45
89 108 75 36 24 31 39 43 40 25 14 10 13 20 18 18 16 14 11 11 22 22 19 24 30 28 28 31 29 30 34 34 36 41 44 49 52 50
156 157 82 30 18 34 46 47 44 38 25 24 26 24 17 10 15 28 26 20 18 22 30 30 34 30 31 36 37 30 31 35 39 44 44 47 46 48
163 147 87 7 17 40 44 51 48 40 35 31 30 24 17 15 22 27 27 28 34 40 37 31 26 30 39 36 38 38 39 40 33 39 42 44 44 44
164 152 191 7 41 61 57 51 52 44 39 34 28 25 22 22 29 33 33 28 40 43 44 36 28 30 39 42 40 38 36 39 40 36 37 41 39 38
158 196 207 154 111 82 64 64 57 48 41 31 27 24 23 25 31 41 39 34 39 41 36 32 31 33 47 46 44 39 35 33 28 30 37 41 41 39
212 203 179 148 123 89 71 72 67 56 41 30 29 28 27 25 32 41 44 40 39 36 34 29 29 40 48 52 46 39 29 25 24 29 25 36 38 37
176 180 161 141 114 86 80 79 73 61 41 34 30 26 27 26 36 45 46 42 33 32 36 39 40 57 56 58 49 33 21 20 22 26 37 52 47 38
166 168 148 138 113 98 91 91 83 65 47 40 36 33 28 32 43 49 46 40 33 35 38 42 47 53 51 40 45 40 34 23 17 20 23 37 35 31
162 149 134 126 109 106 106 108 92 69 51 43 38 36 31 31 43 48 47 38 36 36 39 48 45 34 34 40 41 36 35 38 34 37 32 38 43 42
144 132 135 121 113 113 113 108 94 68 55 47 47 41 37 36 44 48 47 45 37 38 44 51 46 41 42 39 38 38 36 40 44 53 56 57 56 48
Wind_Speed_850mb
12 7 4 9 15 20 24 24 23 16 19 26 31 32 33 41 49 52 45 46 54 51 51 52 56 60 62 70 78 77 80 78 72 71 74 66 42 30
12 4 5 13 18 22 22 22 20 17 15 23 28 33 37 38 48 53 51 41 53 49 51 53 56 58 67 72 78 78 80 77 79 83 63 49 40 25
10 3 8 15 20 21 19 19 17 16 17 20 26 31 35 41 44 52 49 42 53 51 48 52 58 60 69 76 79 80 83 77 79 79 63 57 49 39
6 4 12 16 19 18 17 18 17 15 17 22 28 33 36 42 44 54 54 43 50 57 44 48 54 60 68 80 83 81 77 78 78 77 77 69 56 45
4 7 13 17 20 19 16 15 16 13 16 22 28 31 34 46 53 59 49 50 48 55 54 50 55 58 67 79 86 79 74 74 75 70 71 71 67 58
4 8 14 18 19 17 14 14 10 13 14 22 29 34 37 43 48 66 61 54 47 53 50 46 52 57 65 75 84 79 77 75 75 61 63 66 65 60
4 11 16 19 21 19 14 12 11 12 15 23 34 41 47 51 55 52 53 53 52 61 52 51 50 61 64 71 76 80 75 74 73 64 57 57 60 62
7 13 19 22 23 21 15 14 13 14 19 29 39 42 42 45 51 54 53 52 55 57 49 59 45 54 67 64 70 75 75 72 69 69 69 42 52 54
6 14 18 20 19 16 17 18 19 17 24 31 36 36 36 41 48 49 47 44 43 55 57 56 55 45 56 60 65 72 75 72 69 61 63 63 47 45
9 14 17 19 16 10 8 11 15 20 25 29 31 31 35 41 47 39 39 44 42 52 59 60 64 42 53 58 66 68 70 71 69 62 57 58 51 41
10 15 16 19 17 13 8 7 10 16 23 27 24 23 29 40 42 37 40 46 50 49 61 60 64 51 48 57 60 67 72 73 69 67 58 54 51 40
8 11 15 16 19 14 13 14 15 20 21 19 18 25 34 39 37 37 36 39 43 34 52 58 61 65 40 54 52 60 70 73 74 69 63 54 51 45
3 7 7 12 18 17 18 19 26 24 23 24 24 26 34 38 35 31 34 41 40 39 40 45 55 64 57 48 64 51 63 69 74 68 61 61 59 53
1 3 3 10 15 17 19 23 23 20 19 22 27 36 39 43 36 29 31 36 35 40 39 36 44 53 60 59 62 55 57 61 65 69 68 63 64 63
5 5 5 9 14 14 17 19 19 20 21 24 32 37 40 39 30 24 24 23 27 36 33 38 39 40 50 62 63 61 53 56 57 58 63 69 72 71
11 6 3 6 11 14 14 19 21 22 24 27 30 32 31 33 34 32 32 30 31 35 32 36 37 42 42 52 58 65 63 54 50 50 50 53 58 61
10 6 2 3 5 11 15 18 20 19 21 25 27 30 32 34 35 31 31 33 36 36 35 36 37 37 42 45 53 56 60 65 60 52 47 48 52 55
6 5 5 4 6 12 14 17 18 19 22 23 26 30 34 36 34 31 32 33 35 35 38 38 36 31 35 47 51 49 53 55 55 55 57 59 60 54
4 9 10 10 10 13 13 14 15 18 22 22 25 28 29 31 34 34 33 32 34 36 38 37 36 33 36 42 50 50 51 52 50 49 43 47 50 55
11 12 13 12 11 12 11 12 14 17 17 21 24 26 29 32 33 32 31 30 32 36 37 38 34 32 38 42 48 50 52 54 55 50 46 36 37 42
15 17 15 11 11 11 11 12 12 13 16 19 20 22 24 27 30 29 27 28 31 36 39 38 35 27 28 29 35 42 46 48 49 48 46 47 42 54
17 13 12 12 13 12 11 12 11 13 16 18 19 20 22 25 28 27 26 27 31 33 32 26 19 18 24 36 38 40 44 41 37 34 42 48 48 40
12 11 10 13 14 11 10 11 10 12 14 15 16 17 19 23 26 25 24 26 27 30 28 25 23 26 30 34 36 38 41 44 42 38 40 35 30 28
Wind_Direction_850mb
140 141 56 1 356 352 342 338 346 338 326 348 356 4 4 5 3 360 353 356 357 359 358 353 351 353 356 358 359 360 357 353 354 357 354 342 328 313
148 137 28 351 349 348 339 338 343 346 326 345 359 4 8 8 8 3 4 360 2 4 1 355 356 0 3 5 4 3 360 0 4 5 355 11 3 349
139 40 7 348 349 348 347 339 345 342 332 359 4 8 7 5 4 5 5 4 8 9 360 359 1 4 7 11 8 7 6 7 11 14 17 28 19 31
119 24 355 351 354 350 351 335 343 332 348 360 1 5 3 2 2 7 4 8 11 12 11 6 8 11 10 11 11 9 12 13 18 21 25 30 36 43
103 8 357 2 2 349 348 342 352 342 354 356 357 358 1 3 0 2 7 11 14 13 9 9 10 15 17 14 15 12 14 17 19 27 29 30 37 48
78 6 3 8 4 351 338 353 353 351 11 1 3 4 6 6 3 3 9 12 12 16 16 17 14 19 18 17 16 17 17 22 23 29 34 33 38 47
29 10 7 2 6 358 351 4 5 26 9 9 9 11 11 11 7 8 8 11 18 13 20 26 21 26 23 19 14 21 19 22 25 32 32 38 44 49
20 13 7 3 6 4 19 30 23 20 14 8 8 13 12 6 2 5 7 9 12 11 14 24 23 20 19 20 14 18 24 23 25 29 22 41 49 54
32 20 13 9 7 3 18 11 17 20 11 7 12 11 9 1 352 358 9 12 10 13 18 20 24 25 22 25 22 17 20 26 26 29 30 35 47 50
39 24 19 19 15 30 20 343 357 1 7 17 13 8 2 352 351 357 358 6 21 24 15 15 15 30 30 28 27 24 24 24 29 29 32 34 42 45
34 27 24 27 32 48 41 16 5 17 19 17 9 1 355 353 354 6 11 10 18 19 22 20 15 17 29 27 27 25 24 30 27 33 34 36 39 41
37 23 23 34 35 34 48 46 49 40 33 21 13 2 3 1 4 14 18 17 18 23 17 19 18 17 14 25 25 24 24 26 33 30 33 41 40 45
67 31 27 35 31 28 43 44 45 30 18 4 4 10 13 14 14 16 17 14 17 23 15 18 22 25 28 15 26 31 28 26 32 36 40 37 41 45
89 108 75 36 24 31 39 43 40 25 14 10 13 20 18 18 16 14 11 11 22 22 19 24 30 28 28 31 29 30 34 34 36 41 44 49 52 50
156 157 82 30 18 34 46 47 44 38 25 24 26 24 17 10 15 28 26 20 18 22 30 30 34 30 31 36 37 30 31 35 39 44 44 47 46 48
163 147 87 7 17 40 44 51 48 40 35 31 30 24 17 15 22 27 27 28 34 40 37 31 26 30 39 36 38 38 39 40 33 39 42 44 44 44
164 152 191 7 41 61 57 51 52 44 39 34 28 25 22 22 29 33 33 28 40 43 44 36 28 30 39 42 40 38 36 39 40 36 37 41 39 38
158 196 207 154 111 82 64 64 57 48 41 31 27 24 23 25 31 41 39 34 39 41 36 32 31 33 47 46 44 39 35 33 28 30 37 41 41 39
212 203 179 148 123 89 71 72 67 56 41 30 29 28 27 25 32 41 44 40 39 36 34 29 29 40 48 52 46 39 29 25 24 29 25 36 38 37
176 180 161 141 114 86 80 79 73 61 41 34 30 26 27 26 36 45 46 42 33 32 36 39 40 57 56 58 49 33 21 20 22 26 37 52 47 38
166 168 148 138 113 98 91 91 83 65 47 40 36 33 28 32 43 49 46 40 33 35 38 42 47 53 51 40 45 40 34 23 17 20 23 37 35 31
162 149 134 126 109 106 106 108 92 69 51 43 38 36 31 31 43 48 47 38 36 36 39 48 45 34 34 40 41 36 35 38 34 37 32 38 43 42
144 132 135 121 113 113 113 108 94 68 55 47 47 41 37 36 44 48 47 45 37 38 44 51 46 41 42 39 38 38 36 40 44 53 56 57 56 48